EN

Hourly Weather Dziewiatle

Today, 28 October, Wednesday

Time Temperature Precipitation Wind Pressure Humidity
00:00 +10°C° 0 mm 1 mps 730 mmHg 91%
01:00 +10°C° 0 mm 1 mps 730 mmHg 92%
02:00 +10°C° 0 mm 1 mps 730 mmHg 93%
03:00 +10°C° 0 mm 1 mps 730 mmHg 93%
04:00 +9°C° 0 mm 1 mps 730 mmHg 94%
05:00 +8°C° 0 mm 0 mps 730 mmHg 94%
06:00 +8°C° 0 mm 0 mps 730 mmHg 94%
07:00 +8°C° 0 mm 0 mps 731 mmHg 94%
08:00 +11°C° 0 mm 1 mps 731 mmHg 89%
09:00 +12°C° 0 mm 1 mps 731 mmHg 83%
10:00 +14°C° 0 mm 1 mps 731 mmHg 78%
11:00 +15°C° 0 mm 1 mps 731 mmHg 75%
12:00 +15°C° 0 mm 2 mps 731 mmHg 71%
13:00 +16°C° 0 mm 2 mps 730 mmHg 68%
14:00 +15°C° 0 mm 1 mps 730 mmHg 72%
15:00 +14°C° 0 mm 1 mps 730 mmHg 76%
16:00 +13°C° 0 mm 1 mps 730 mmHg 80%
17:00 +13°C° 0 mm 1 mps 731 mmHg 82%
18:00 +12°C° 0 mm 1 mps 731 mmHg 84%
19:00 +12°C° 0 mm 1 mps 731 mmHg 86%
20:00 +11°C° 0 mm 1 mps 731 mmHg 87%
21:00 +10°C° 0 mm 2 mps 731 mmHg 87%
22:00 +9°C° 0 mm 2 mps 731 mmHg 88%
23:00 +9°C° 0 mm 2 mps 732 mmHg 87%

Tomorrow, 29 October, Thursday

Time Temperature Precipitation Wind Pressure Humidity
00:00 +8°C° 0 mm 2 mps 732 mmHg 87%
01:00 +8°C° 0 mm 2 mps 732 mmHg 86%
02:00 +8°C° 0 mm 2 mps 732 mmHg 87%
03:00 +8°C° 0 mm 2 mps 732 mmHg 87%
04:00 +7°C° 0 mm 2 mps 731 mmHg 87%
05:00 +7°C° 0 mm 2 mps 732 mmHg 87%
06:00 +7°C° 0 mm 2 mps 732 mmHg 86%
07:00 +8°C° 0 mm 2 mps 732 mmHg 86%
08:00 +9°C° 0 mm 3 mps 732 mmHg 78%
09:00 +10°C° 0 mm 3 mps 732 mmHg 71%
10:00 +12°C° 0 mm 3 mps 732 mmHg 64%
11:00 +12°C° 0 mm 4 mps 732 mmHg 63%
12:00 +12°C° 0 mm 4 mps 731 mmHg 62%
13:00 +13°C° 0 mm 4 mps 731 mmHg 61%
14:00 +12°C° 0 mm 4 mps 731 mmHg 65%
15:00 +11°C° 0 mm 4 mps 731 mmHg 69%
16:00 +10°C° 0 mm 3 mps 731 mmHg 73%
17:00 +10°C° 0 mm 4 mps 731 mmHg 76%
18:00 +10°C° 0 mm 4 mps 731 mmHg 78%
19:00 +9°C° 0 mm 5 mps 731 mmHg 80%
20:00 +8°C° 0 mm 5 mps 731 mmHg 81%
21:00 +7°C° 0 mm 5 mps 731 mmHg 81%
22:00 +7°C° 0 mm 5 mps 732 mmHg 82%
23:00 +6°C° 0 mm 5 mps 732 mmHg 83%

Day after tomorrow, 30 October, Friday

Time Temperature Precipitation Wind Pressure Humidity
00:00 +5°C° 0 mm 5 mps 732 mmHg 84%
01:00 +5°C° 0 mm 5 mps 733 mmHg 86%
02:00 +4°C° 0 mm 4 mps 733 mmHg 87%
03:00 +4°C° 0 mm 4 mps 734 mmHg 88%
04:00 +4°C° 0 mm 4 mps 734 mmHg 89%
05:00 +3°C° 0 mm 4 mps 734 mmHg 90%
06:00 +3°C° 0 mm 4 mps 734 mmHg 90%
07:00 +3°C° 0 mm 4 mps 734 mmHg 91%
08:00 +4°C° 0 mm 4 mps 734 mmHg 85%
09:00 +6°C° 0 mm 4 mps 735 mmHg 78%
10:00 +7°C° 0 mm 4 mps 735 mmHg 72%
11:00 +7°C° 0 mm 4 mps 734 mmHg 68%
12:00 +8°C° 0 mm 4 mps 734 mmHg 64%
13:00 +8°C° 0 mm 4 mps 734 mmHg 60%
14:00 +9°C° 0.1 mm 3 mps 733 mmHg 64%
15:00 +8°C° 0.1 mm 3 mps 733 mmHg 68%
16:00 +8°C° 0.1 mm 2 mps 732 mmHg 73%
17:00 +7°C° 1.2 mm 2 mps 732 mmHg 79%
18:00 +7°C° 1.2 mm 3 mps 732 mmHg 85%
19:00 +5°C° 1.2 mm 3 mps 731 mmHg 91%
20:00 +5°C° 2 mm 3 mps 731 mmHg 92%
21:00 +5°C° 2 mm 4 mps 731 mmHg 94%
22:00 +5°C° 2 mm 4 mps 731 mmHg 95%
23:00 +5°C° 0.3 mm 4 mps 731 mmHg 94%

31 October, Saturday

Time Temperature Precipitation Wind Pressure Humidity
00:00 +5°C° 0.3 mm 3 mps 731 mmHg 93%
01:00 +5°C° 0.3 mm 3 mps 732 mmHg 91%
02:00 +4°C° 0 mm 3 mps 732 mmHg 91%
03:00 +4°C° 0 mm 3 mps 733 mmHg 90%
04:00 +4°C° 0 mm 3 mps 734 mmHg 89%
05:00 +3°C° 0 mm 3 mps 734 mmHg 91%
06:00 +4°C° 0 mm 2 mps 735 mmHg 93%
07:00 +3°C° 0 mm 2 mps 735 mmHg 94%
08:00 +5°C° 0 mm 2 mps 736 mmHg 89%
09:00 +6°C° 0 mm 2 mps 737 mmHg 83%
10:00 +7°C° 0 mm 3 mps 737 mmHg 77%
11:00 +8°C° 0 mm 3 mps 737 mmHg 74%
12:00 +8°C° 0 mm 3 mps 737 mmHg 71%
13:00 +9°C° 0 mm 3 mps 738 mmHg 68%
14:00 +8°C° 0 mm 2 mps 738 mmHg 72%
15:00 +8°C° 0 mm 2 mps 738 mmHg 76%
16:00 +7°C° 0 mm 2 mps 738 mmHg 80%
17:00 +6°C° 0 mm 2 mps 738 mmHg 83%
18:00 +7°C° 0 mm 1 mps 739 mmHg 86%
19:00 +6°C° 0 mm 1 mps 739 mmHg 89%
20:00 +6°C° 0 mm 1 mps 739 mmHg 90%
21:00 +6°C° 0 mm 1 mps 739 mmHg 92%
22:00 +4°C° 0 mm 0 mps 739 mmHg 93%
23:00 +4°C° 0 mm 0 mps 739 mmHg 93%

1 November, Sunday

Time Temperature Precipitation Wind Pressure Humidity
00:00 +5°C° 0 mm 1 mps 739 mmHg 93%
01:00 +5°C° 0 mm 1 mps 739 mmHg 93%
02:00 +5°C° 0 mm 1 mps 739 mmHg 93%
03:00 +4°C° 0 mm 1 mps 739 mmHg 93%
04:00 +4°C° 0 mm 1 mps 739 mmHg 93%
05:00 +4°C° 0 mm 1 mps 739 mmHg 93%
06:00 +4°C° 0 mm 1 mps 739 mmHg 94%
07:00 +3°C° 0 mm 2 mps 739 mmHg 94%
08:00 +5°C° 0 mm 2 mps 739 mmHg 89%
09:00 +5°C° 0 mm 3 mps 739 mmHg 84%
10:00 +8°C° 0 mm 3 mps 739 mmHg 79%
11:00 +9°C° 0 mm 3 mps 739 mmHg 76%
12:00 +10°C° 0 mm 3 mps 738 mmHg 73%
13:00 +11°C° 0 mm 3 mps 738 mmHg 69%
14:00 +10°C° 0 mm 3 mps 738 mmHg 74%
15:00 +9°C° 0 mm 3 mps 738 mmHg 78%
16:00 +8°C° 0 mm 2 mps 738 mmHg 82%
17:00 +7°C° 0 mm 2 mps 738 mmHg 85%
18:00 +7°C° 0 mm 2 mps 738 mmHg 88%
19:00 +5°C° 0 mm 3 mps 738 mmHg 90%
20:00 +6°C° 0 mm 2 mps 738 mmHg 91%
21:00 +5°C° 0 mm 2 mps 738 mmHg 91%
22:00 +5°C° 0 mm 2 mps 738 mmHg 92%
23:00 +5°C° 0 mm 2 mps 738 mmHg 91%

2 November, Monday

Time Temperature Precipitation Wind Pressure Humidity
00:00 +5°C° 0 mm 2 mps 738 mmHg 90%
01:00 +5°C° 0 mm 2 mps 737 mmHg 89%
02:00 +5°C° 0 mm 2 mps 737 mmHg 89%
03:00 +4°C° 0 mm 2 mps 737 mmHg 88%
04:00 +4°C° 0 mm 2 mps 737 mmHg 87%
05:00 +4°C° 0 mm 2 mps 737 mmHg 87%
06:00 +4°C° 0 mm 2 mps 737 mmHg 86%
07:00 +4°C° 0 mm 2 mps 737 mmHg 86%
08:00 +6°C° 0 mm 2 mps 737 mmHg 79%
09:00 +7°C° 0 mm 2 mps 738 mmHg 72%
10:00 +9°C° 0 mm 2 mps 738 mmHg 66%
11:00 +10°C° 0 mm 2 mps 738 mmHg 63%
12:00 +12°C° 0 mm 2 mps 738 mmHg 61%
13:00 +12°C° 0 mm 2 mps 737 mmHg 58%
14:00 +12°C° 0 mm 2 mps 737 mmHg 63%
15:00 +10°C° 0 mm 2 mps 737 mmHg 67%
16:00 +9°C° 0 mm 2 mps 737 mmHg 72%
17:00 +8°C° 0 mm 2 mps 737 mmHg 74%
18:00 +8°C° 0 mm 2 mps 737 mmHg 77%
19:00 +7°C° 0 mm 2 mps 737 mmHg 79%
20:00 +7°C° 0 mm 2 mps 737 mmHg 80%
21:00 +6°C° 0 mm 2 mps 737 mmHg 81%
22:00 +6°C° 0 mm 2 mps 737 mmHg 81%
23:00 +6°C° 0 mm 2 mps 737 mmHg 81%
Show more